Regional Weather Roundup
Issued by NWS

Home | Current Version | Previous Version | Text Only | Print | Product List | Glossary Off
Versions: 1 2 3 4 5 6 7 8 9 10 11 12 13 14 15 16 17 18 19 20 21 22 23 24 25 26 27 28 29 30 31 32 33 34 35 36 37 38 39 40 41 42 43 44 45 46 47 48 49 50

000
ASUS44 KMEG 300400
RWRTN
TENNESSEE HOURLY STATE WEATHER ROUNDUP
NATIONAL WEATHER SERVICE MEMPHIS TN
1100 PM CDT WED MAR 29 2017

TNZ002-004-019-021-049-052-054-088>092-300500-
WEST TENNESSEE

CITY           SKY/WX    TMP DP  RH WIND       PRES   REMARKS
MEMPHIS INTL   CLOUDY    75  57  53 SE14      29.77F
NWS MEMPHIS      N/A     73 N/A N/A MISG        N/A
JACKSON        PTCLDY    73  58  59 S5        29.82F
DYERSBURG      MOCLDY    70  60  70 SE8       29.79F
PARIS          CLEAR     70  54  56 SE7       29.83F
$$

TNZ008-025-027-028-033-062-065-066-300500-
NORTH MIDDLE TENNESSEE

CITY           SKY/WX    TMP DP  RH WIND       PRES   REMARKS
NASHVILLE      CLOUDY    72  58  61 S3        29.90S
CLARKSVILLE    MOCLDY    69  58  67 S5        29.86F
SMYRNA         CLOUDY    66  60  81 CALM      29.91S
CROSSVILLE     CLEAR     63  52  67 CALM      29.99S
$$

TNZ061-075-076-078-094-096-097-300500-
SOUTH MIDDLE TENNESSEE

CITY           SKY/WX    TMP DP  RH WIND       PRES   REMARKS
TULLAHOMA      CLEAR     70  55  60 SE5       29.93F
WINCHESTER     CLEAR     70  57  64 S3        29.93F
MCMINNVILLE    CLEAR     66  57  72 CALM      29.93F
COLUMBIA       CLEAR     64  64 100 CALM      29.88F
SHELBYVILLE    CLEAR     70  61  73 S3        29.92S
$$

TNZ017-018-042-046-047-300500-
NORTHEAST TENNESSEE

CITY           SKY/WX    TMP DP  RH WIND       PRES   REMARKS
TRI CITIES     CLEAR     53  47  79 CALM      30.02F
$$

TNZ012-013-036-069-073-074-300500-
CENTRAL EAST TENNESSEE

CITY           SKY/WX    TMP DP  RH WIND       PRES   REMARKS
KNOXVILLE      NOT AVBL
OAK RIDGE      PTCLDY    62  52  69 CALM      29.97F
GATLINBURG     CLEAR     55  48  76 CALM      29.98F
$$

TNZ083-085-099-300500-
SOUTHEAST TENNESSEE

CITY           SKY/WX    TMP DP  RH WIND       PRES   REMARKS
CHATTANOOGA    CLEAR     64  58  80 CALM      29.94F
$$

SKY/WX REPORTED AS FAIR MEANS FEW OR NO CLOUDS BELOW
12 THOUSAND FEET.





USA.gov is the U.S. government's official web portal to all federal, state and local government web resources and services.